"Period start","avg(HW err(1)/warn(2) (#))","avg(Visibility (m))","avg(Weather code (#))","avg(Precip intensity (mm/h))","min(HW err(1)/warn(2) (#))","max(HW err(1)/warn(2) (#))","std(HW err(1)/warn(2) (#))","med(HW err(1)/warn(2) (#))","min(Visibility (m))","max(Visibility (m))","std(Visibility (m))","med(Visibility (m))","min(Weather code (#))","max(Weather code (#))","std(Weather code (#))","med(Weather code (#))","min(Precip intensity (mm/h))","max(Precip intensity (mm/h))","std(Precip intensity (mm/h))","med(Precip intensity (mm/h))"
2016-04-21 00:00:00,2,17219,0,0.00,2,2,0,2,12732,22954,3364,16664,0,0,0,0,0.00,0.00,0.00,0.00
2016-04-21 00:10:00,2,17930,0,0.00,2,2,0,2,14636,21559,1853,17592,0,0,0,0,0.00,0.00,0.00,0.00
2016-04-21 00:20:00,2,19046,0,0.00,2,2,0,2,14945,28117,3326,18796,0,0,0,0,0.00,0.00,0.00,0.00
2016-04-21 00:30:00,2,18913,0,0.00,2,2,0,2,13831,22909,2860,19144,0,0,0,0,0.00,0.00,0.00,0.00
2016-04-21 00:40:00,2,13932,0,0.00,2,2,0,2,11898,17250,1454,13906,0,0,0,0,0.00,0.00,0.00,0.00
2016-04-21 00:50:00,2,13165,0,0.00,2,2,0,2,11112,15924,1320,13152,0,0,0,0,0.00,0.00,0.00,0.00
2016-04-21 01:00:00,2,13048,0,0.00,2,2,0,2,11533,15031,1039,12866,0,0,0,0,0.00,0.00,0.00,0.00
2016-04-21 01:10:00,2,12171,0,0.00,2,2,0,2,10657,14128,887,12018,0,0,0,0,0.00,0.00,0.00,0.00
2016-04-21 01:20:00,2,13046,0,0.00,2,2,0,2,9288,17858,2363,12956,0,0,0,0,0.00,0.00,0.00,0.00
2016-04-21 01:30:00,2,11482,14,0.00,2,2,0,2,9370,14458,1793,11558,0,71,28,0,0.00,0.00,0.00,0.00
2016-04-21 01:40:00,2,9425,76,0.02,2,2,0,2,8140,11185,1051,9156,71,78,3,78,0.00,0.10,0.03,0.00
2016-04-21 01:50:00,2,7631,77,0.01,2,2,0,2,6146,10180,1045,7316,77,77,0,77,0.00,0.05,0.02,0.00
2016-04-21 02:00:00,2,8532,77,0.01,2,2,0,2,6847,9908,966,8511,77,77,0,77,0.00,0.05,0.02,0.00
2016-04-21 02:10:00,2,8394,44,0.01,2,2,0,2,7534,9248,617,8321,10,77,34,44,0.00,0.10,0.03,0.00
2016-04-21 02:20:00,2,9179,29,0.00,2,2,0,2,8361,11117,868,8930,10,77,29,10,0.00,0.00,0.00,0.00
2016-04-21 02:30:00,2,9646,13,0.00,2,2,0,2,8460,12663,1131,9325,0,77,22,10,0.00,0.00,0.00,0.00
2016-04-21 02:40:00,2,11922,37,0.00,2,2,0,2,8547,15102,1890,11914,0,77,37,36,0.00,0.00,0.00,0.00
2016-04-21 02:50:00,2,10686,30,0.01,2,2,0,2,8606,13069,1353,10111,0,78,37,0,0.00,0.05,0.02,0.00
2016-04-21 03:00:00,2,9943,54,0.01,2,2,0,2,8759,11817,885,9744,0,78,35,77,0.00,0.05,0.02,0.00
2016-04-21 03:10:00,2,9237,0,0.00,2,2,0,2,8152,9879,513,9424,0,0,0,0,0.00,0.00,0.00,0.00
2016-04-21 03:20:00,2,7642,35,0.00,2,2,0,2,6675,8503,574,7620,0,78,33,10,0.00,0.00,0.00,0.00
2016-04-21 03:30:00,2,6565,77,0.02,2,2,0,2,5472,8110,792,6344,77,77,0,77,0.00,0.05,0.02,0.00
2016-04-21 03:40:00,2,7126,77,0.04,2,2,0,2,6197,7734,461,7140,77,77,0,77,0.00,0.05,0.02,0.05
2016-04-21 03:50:00,2,6549,77,0.06,2,2,0,2,5674,8932,932,6183,77,77,0,77,0.05,0.10,0.02,0.05
2016-04-21 04:00:00,2,7441,73,0.03,2,2,0,2,5653,8958,1037,7536,71,77,3,71,0.00,0.15,0.06,0.00
2016-04-21 04:10:00,2,6513,44,0.01,2,2,0,2,5138,7743,844,6568,10,77,34,44,0.00,0.10,0.03,0.00
2016-04-21 04:20:00,2,7916,10,0.00,2,2,0,2,7424,8635,346,7842,10,10,0,10,0.00,0.00,0.00,0.00
2016-04-21 04:30:00,2,8029,10,0.00,2,2,0,2,7284,8776,445,8074,10,10,0,10,0.00,0.00,0.00,0.00
2016-04-21 04:40:00,2,8265,10,0.00,2,2,0,2,7776,8967,352,8204,10,10,0,10,0.00,0.00,0.00,0.00
2016-04-21 04:50:00,2,7862,10,0.00,2,2,0,2,6856,8392,472,7984,10,10,0,10,0.00,0.00,0.00,0.00
2016-04-21 05:00:00,2,7661,10,0.00,2,2,0,2,6524,8568,596,7658,10,10,0,10,0.00,0.00,0.00,0.00
2016-04-21 05:10:00,2,10127,10,0.00,2,2,0,2,8098,11526,848,10300,10,10,0,10,0.00,0.00,0.00,0.00
2016-04-21 05:20:00,2,9992,10,0.00,2,2,0,2,8518,12128,999,9910,10,10,0,10,0.00,0.00,0.00,0.00
2016-04-21 05:30:00,2,8258,10,0.00,2,2,0,2,7539,9367,488,8170,10,10,0,10,0.00,0.00,0.00,0.00
2016-04-21 05:40:00,2,7905,10,0.00,2,2,0,2,7061,8588,479,8078,10,10,0,10,0.00,0.00,0.00,0.00
2016-04-21 05:50:00,2,7588,10,0.00,2,2,0,2,6196,8682,634,7650,10,10,0,10,0.00,0.00,0.00,0.00
2016-04-21 06:00:00,2,6698,10,0.00,2,2,0,2,5607,7723,728,6668,10,10,0,10,0.00,0.00,0.00,0.00
2016-04-21 06:10:00,2,6950,10,0.00,2,2,0,2,6535,7582,314,6906,10,10,0,10,0.00,0.00,0.00,0.00
2016-04-21 06:20:00,2,6778,10,0.00,2,2,0,2,5844,7448,580,6956,10,10,0,10,0.00,0.00,0.00,0.00
2016-04-21 06:30:00,2,7684,10,0.00,2,2,0,2,7006,8208,338,7816,10,10,0,10,0.00,0.00,0.00,0.00
2016-04-21 06:40:00,2,7915,10,0.00,2,2,0,2,7156,9022,564,7836,10,10,0,10,0.00,0.00,0.00,0.00
2016-04-21 06:50:00,2,8845,10,0.00,2,2,0,2,7736,9793,716,9054,10,10,0,10,0.00,0.00,0.00,0.00
2016-04-21 07:00:00,2,8914,10,0.00,2,2,0,2,7825,9715,628,8996,10,10,0,10,0.00,0.00,0.00,0.00
2016-04-21 07:10:00,2,9431,10,0.00,2,2,0,2,8249,10092,534,9550,10,10,0,10,0.00,0.00,0.00,0.00
2016-04-21 07:20:00,2,8338,10,0.00,2,2,0,2,7565,8941,438,8390,10,10,0,10,0.00,0.00,0.00,0.00
2016-04-21 07:30:00,2,9031,10,0.00,2,2,0,2,8222,9862,499,9042,10,10,0,10,0.00,0.00,0.00,0.00
2016-04-21 07:40:00,2,8900,10,0.00,2,2,0,2,8398,9563,327,8861,10,10,0,10,0.00,0.00,0.00,0.00
2016-04-21 07:50:00,2,8938,10,0.00,2,2,0,2,8222,9723,464,8786,10,10,0,10,0.00,0.00,0.00,0.00
2016-04-21 08:00:00,2,9180,10,0.00,2,2,0,2,8759,10231,496,8955,10,10,0,10,0.00,0.00,0.00,0.00
2016-04-21 08:10:00,2,10437,10,0.00,2,2,0,2,9293,12209,982,10286,10,10,0,10,0.00,0.00,0.00,0.00
2016-04-21 08:20:00,2,11406,6,0.00,2,2,0,2,10169,13220,890,11324,0,10,5,10,0.00,0.00,0.00,0.00
2016-04-21 08:30:00,2,13031,0,0.00,2,2,0,2,11460,15475,1075,12831,0,0,0,0,0.00,0.00,0.00,0.00
2016-04-21 08:40:00,2,13451,0,0.00,2,2,0,2,11498,15057,1084,13594,0,0,0,0,0.00,0.00,0.00,0.00
2016-04-21 08:50:00,2,13896,0,0.00,2,2,0,2,11740,15903,1271,13856,0,0,0,0,0.00,0.00,0.00,0.00
2016-04-21 09:00:00,2,14694,0,0.00,2,2,0,2,13120,16272,991,14765,0,0,0,0,0.00,0.00,0.00,0.00
2016-04-21 09:10:00,2,15085,0,0.00,2,2,0,2,13487,16922,906,14964,0,0,0,0,0.00,0.00,0.00,0.00
2016-04-21 09:20:00,2,15225,0,0.00,2,2,0,2,13693,17535,1230,14938,0,0,0,0,0.00,0.00,0.00,0.00
2016-04-21 09:30:00,2,16634,0,0.00,2,2,0,2,13805,19672,1791,16813,0,0,0,0,0.00,0.00,0.00,0.00
2016-04-21 09:40:00,2,15993,0,0.00,2,2,0,2,13894,19864,1720,15894,0,0,0,0,0.00,0.00,0.00,0.00
2016-04-21 09:50:00,2,15255,0,0.00,2,2,0,2,13502,17399,1479,14893,0,0,0,0,0.00,0.00,0.00,0.00
2016-04-21 10:00:00,2,15517,0,0.00,2,2,0,2,12719,18711,1872,15768,0,0,0,0,0.00,0.00,0.00,0.00
2016-04-21 10:10:00,2,14603,0,0.00,2,2,0,2,13112,16828,1236,14578,0,0,0,0,0.00,0.00,0.00,0.00
2016-04-21 10:20:00,2,14948,76,0.00,2,2,0,2,12834,16240,1042,15234,71,77,2,77,0.00,0.00,0.00,0.00
2016-04-21 10:30:00,2,15328,77,0.00,2,2,0,2,13843,18728,1436,14843,77,77,0,77,0.00,0.00,0.00,0.00
2016-04-21 10:40:00,2,14465,77,0.01,2,2,0,2,12017,18213,1695,14428,77,77,0,77,0.00,0.05,0.02,0.00
2016-04-21 10:50:00,2,15238,77,0.01,2,2,0,2,13551,17003,842,15111,77,77,0,77,0.00,0.05,0.02,0.00
2016-04-21 11:00:00,2,15527,77,0.01,2,2,0,2,14159,17191,727,15424,77,78,0,77,0.00,0.05,0.02,0.00
2016-04-21 11:10:00,2,16220,62,0.00,2,2,0,2,14632,17174,816,16419,0,77,31,77,0.00,0.00,0.00,0.00
2016-04-21 11:20:00,2,16771,0,0.00,2,2,0,2,13646,19448,1719,17080,0,0,0,0,0.00,0.00,0.00,0.00
2016-04-21 11:30:00,2,19847,0,0.00,2,2,0,2,17645,23406,1601,19470,0,0,0,0,0.00,0.00,0.00,0.00
2016-04-21 11:40:00,2,18403,0,0.00,2,2,0,2,16561,20989,1433,18039,0,0,0,0,0.00,0.00,0.00,0.00
2016-04-21 11:50:00,2,16377,0,0.00,2,2,0,2,15189,17806,915,16420,0,0,0,0,0.00,0.00,0.00,0.00
2016-04-21 12:00:00,2,16239,14,0.00,2,2,0,2,13884,18285,1184,16257,0,71,28,0,0.00,0.00,0.00,0.00
2016-04-21 12:10:00,2,14436,71,0.02,2,2,0,2,10219,17006,1796,14756,71,71,0,71,0.00,0.05,0.02,0.00
2016-04-21 12:20:00,2,17277,72,0.01,2,2,0,2,15814,18424,932,17792,71,77,2,71,0.00,0.10,0.03,0.00
2016-04-21 12:30:00,2,18228,45,0.02,2,2,0,2,14712,20923,2112,18055,0,78,37,71,0.00,0.20,0.06,0.00
2016-04-21 12:40:00,2,19174,0,0.00,2,2,0,2,17439,20500,953,19178,0,0,0,0,0.00,0.00,0.00,0.00
2016-04-21 12:50:00,2,18289,0,0.00,2,2,0,2,14207,20565,1695,18212,0,0,0,0,0.00,0.00,0.00,0.00
2016-04-21 13:00:00,2,18509,0,0.00,2,2,0,2,17559,19253,547,18644,0,0,0,0,0.00,0.00,0.00,0.00
2016-04-21 13:10:00,2,18686,0,0.00,2,2,0,2,17547,19482,715,19016,0,0,0,0,0.00,0.00,0.00,0.00
2016-04-21 13:20:00,2,18433,0,0.00,2,2,0,2,16668,21020,1385,17924,0,0,0,0,0.00,0.00,0.00,0.00
2016-04-21 13:30:00,2,17485,0,0.00,2,2,0,2,16754,19847,877,17215,0,0,0,0,0.00,0.00,0.00,0.00
2016-04-21 13:40:00,2,16338,0,0.00,2,2,0,2,14502,18135,1277,16495,0,0,0,0,0.00,0.00,0.00,0.00
2016-04-21 13:50:00,2,16935,45,0.00,2,2,0,2,16052,17706,594,16936,0,78,37,71,0.00,0.00,0.00,0.00
2016-04-21 14:00:00,2,18345,16,0.00,2,2,0,2,16090,19884,1015,18370,0,78,31,0,0.00,0.00,0.00,0.00
2016-04-21 14:10:00,2,16150,0,0.00,2,2,0,2,14136,17261,973,16238,0,0,0,0,0.00,0.00,0.00,0.00
2016-04-21 14:20:00,2,15528,0,0.00,2,2,0,2,14681,17168,681,15310,0,0,0,0,0.00,0.00,0.00,0.00
2016-04-21 14:30:00,2,16006,0,0.00,2,2,0,2,14674,16876,786,16410,0,0,0,0,0.00,0.00,0.00,0.00
2016-04-21 14:40:00,2,17131,0,0.00,2,2,0,2,15743,18112,678,17136,0,0,0,0,0.00,0.00,0.00,0.00
2016-04-21 14:50:00,2,16830,0,0.00,2,2,0,2,15839,18630,773,16636,0,0,0,0,0.00,0.00,0.00,0.00
2016-04-21 15:00:00,2,16327,0,0.00,2,2,0,2,13728,18102,1132,16343,0,0,0,0,0.00,0.00,0.00,0.00
2016-04-21 15:10:00,2,16242,0,0.00,2,2,0,2,14462,18641,1397,16140,0,0,0,0,0.00,0.00,0.00,0.00
2016-04-21 15:20:00,2,18073,0,0.00,2,2,0,2,16473,20321,1108,18032,0,0,0,0,0.00,0.00,0.00,0.00
2016-04-21 15:30:00,2,20408,0,0.00,2,2,0,2,19305,21959,768,20562,0,0,0,0,0.00,0.00,0.00,0.00
2016-04-21 15:40:00,2,20819,0,0.00,2,2,0,2,19650,22412,795,20524,0,0,0,0,0.00,0.00,0.00,0.00
2016-04-21 15:50:00,2,21322,0,0.00,2,2,0,2,20243,23900,968,21090,0,0,0,0,0.00,0.00,0.00,0.00
2016-04-21 16:00:00,2,22213,0,0.00,2,2,0,2,18609,27041,2279,22017,0,0,0,0,0.00,0.00,0.00,0.00
2016-04-21 16:10:00,2,24028,0,0.00,2,2,0,2,20455,29240,2494,23220,0,0,0,0,0.00,0.00,0.00,0.00
2016-04-21 16:20:00,2,24835,0,0.00,2,2,0,2,19866,28092,2237,25626,0,0,0,0,0.00,0.00,0.00,0.00
2016-04-21 16:30:00,2,26354,0,0.00,2,2,0,2,23677,30339,2181,26140,0,0,0,0,0.00,0.00,0.00,0.00
2016-04-21 16:40:00,2,27110,0,0.00,2,2,0,2,21962,31795,2845,27679,0,0,0,0,0.00,0.00,0.00,0.00
2016-04-21 16:50:00,2,24588,0,0.00,2,2,0,2,17432,30452,3973,25622,0,0,0,0,0.00,0.00,0.00,0.00
2016-04-21 17:00:00,2,15603,0,0.00,2,2,0,2,11530,20930,2613,15398,0,0,0,0,0.00,0.00,0.00,0.00
2016-04-21 17:10:00,2,9771,61,0.02,2,2,0,2,8835,11862,806,9720,0,78,30,77,0.00,0.15,0.05,0.00
2016-04-21 17:20:00,2,14369,75,0.03,2,2,0,2,8827,18775,3276,14319,71,77,3,77,0.00,0.15,0.05,0.00
2016-04-21 17:30:00,2,24876,77,0.00,2,2,0,2,20565,29412,2754,24288,77,77,0,77,0.00,0.00,0.00,0.00
2016-04-21 17:40:00,2,38635,23,0.00,2,2,0,2,33782,43954,3555,39138,0,77,35,0,0.00,0.00,0.00,0.00
2016-04-21 17:50:00,2,41463,0,0.00,2,2,0,2,34191,50000,4689,41238,0,0,0,0,0.00,0.00,0.00,0.00
2016-04-21 18:00:00,2,46567,0,0.00,2,2,0,2,38019,50000,3817,48069,0,0,0,0,0.00,0.00,0.00,0.00
2016-04-21 18:10:00,2,37488,0,0.00,2,2,0,2,32011,47138,4229,36297,0,0,0,0,0.00,0.00,0.00,0.00
2016-04-21 18:20:00,2,48862,0,0.00,2,2,0,2,44092,50000,1848,49984,0,0,0,0,0.00,0.00,0.00,0.00
2016-04-21 18:30:00,2,43213,0,0.00,2,2,0,2,36156,50000,4996,43606,0,0,0,0,0.00,0.00,0.00,0.00
2016-04-21 18:40:00,2,37453,0,0.00,2,2,0,2,32845,42104,3442,37216,0,0,0,0,0.00,0.00,0.00,0.00
2016-04-21 18:50:00,2,40951,0,0.00,2,2,0,2,34233,47776,4262,41778,0,0,0,0,0.00,0.00,0.00,0.00
2016-04-21 19:00:00,2,44020,0,0.00,2,2,0,2,40123,49189,3325,43798,0,0,0,0,0.00,0.00,0.00,0.00
2016-04-21 19:10:00,2,46873,0,0.00,2,2,0,2,43229,50000,2194,47202,0,0,0,0,0.00,0.00,0.00,0.00
2016-04-21 19:20:00,2,47174,0,0.00,2,2,0,2,40465,50000,2687,47562,0,0,0,0,0.00,0.00,0.00,0.00
2016-04-21 19:30:00,2,46043,0,0.00,2,2,0,2,39859,50000,3194,46332,0,0,0,0,0.00,0.00,0.00,0.00
2016-04-21 19:40:00,2,44396,0,0.00,2,2,0,2,37392,50000,4553,44768,0,0,0,0,0.00,0.00,0.00,0.00
2016-04-21 19:50:00,2,49636,0,0.00,2,2,0,2,48267,50000,572,50000,0,0,0,0,0.00,0.00,0.00,0.00
2016-04-21 20:00:00,2,46107,0,0.00,2,2,0,2,39260,50000,3456,46916,0,0,0,0,0.00,0.00,0.00,0.00
2016-04-21 20:10:00,2,47195,0,0.00,2,2,0,2,45073,50000,1671,46890,0,0,0,0,0.00,0.00,0.00,0.00
2016-04-21 20:20:00,2,48674,0,0.00,2,2,0,2,43011,50000,2171,49894,0,0,0,0,0.00,0.00,0.00,0.00
2016-04-21 20:30:00,2,47652,0,0.00,2,2,0,2,41568,50000,3218,49597,0,0,0,0,0.00,0.00,0.00,0.00
2016-04-21 20:40:00,2,48326,0,0.00,2,2,0,2,43603,50000,2202,49893,0,0,0,0,0.00,0.00,0.00,0.00
2016-04-21 20:50:00,2,48672,0,0.00,2,2,0,2,44526,50000,1586,49226,0,0,0,0,0.00,0.00,0.00,0.00
2016-04-21 21:00:00,2,45816,0,0.00,2,2,0,2,37261,50000,3874,46318,0,0,0,0,0.00,0.00,0.00,0.00
2016-04-21 21:10:00,2,48932,0,0.00,2,2,0,2,45850,50000,1414,49533,0,0,0,0,0.00,0.00,0.00,0.00
2016-04-21 21:20:00,2,46965,0,0.00,2,2,0,2,39128,50000,3681,48697,0,0,0,0,0.00,0.00,0.00,0.00
2016-04-21 21:30:00,2,41792,0,0.00,2,2,0,2,34283,46829,3734,42585,0,0,0,0,0.00,0.00,0.00,0.00
2016-04-21 21:40:00,2,45513,0,0.00,2,2,0,2,34490,50000,4281,46393,0,0,0,0,0.00,0.00,0.00,0.00
2016-04-21 21:50:00,2,42250,0,0.00,2,2,0,2,36623,48288,3103,42024,0,0,0,0,0.00,0.00,0.00,0.00
2016-04-21 22:00:00,2,45653,0,0.00,2,2,0,2,31918,50000,5406,47228,0,0,0,0,0.00,0.00,0.00,0.00
2016-04-21 22:10:00,2,42308,0,0.00,2,2,0,2,31588,48282,5096,42788,0,0,0,0,0.00,0.00,0.00,0.00
2016-04-21 22:20:00,2,47700,0,0.00,1,2,0,2,38099,50000,3987,49012,0,0,0,0,0.00,0.00,0.00,0.00
2016-04-21 22:30:00,1,0,,0.00,1,2,0,1,0,0,0,0,,,,,0.00,0.00,0.00,0.00
2016-04-21 22:40:00,1,,,,1,1,0,1,,,,,,,,,,,,
2016-04-21 22:50:00,1,,,,1,1,0,1,,,,,,,,,,,,
2016-04-21 23:00:00,1,,,,1,1,0,1,,,,,,,,,,,,
2016-04-21 23:10:00,1,,,,1,1,0,1,,,,,,,,,,,,
2016-04-21 23:20:00,1,,,,1,1,0,1,,,,,,,,,,,,
2016-04-21 23:30:00,1,,,,1,1,0,1,,,,,,,,,,,,
2016-04-21 23:40:00,1,,,,1,1,0,1,,,,,,,,,,,,
2016-04-21 23:50:00,1,,,,1,1,0,1,,,,,,,,,,,,
